[[[{"header":{"parameterUnit":"kt","parameterCategory":2,"dx":1,"dy":1,"la1":30.253999710083008,"la2":30.299108505249023,"lo1":-89.0895004272461,"lo2":-89.04439544677734,"nx":28,"ny":28,"refTime":"2022-10-12T21:00:00:Z","depth":"0","parameterNumber":2,"parameterNumberName":"U-component_of_CURRENTS"},"data":[0.3693,0.3724,0.3751,0.3792,0.383,0.3875,0.3964,0.419,0.4526,0.5172,0.5674,0.6134,0.6702,0.7108,0.7043,0.6904,0.6173,0.6071,0.5851,0.6225,0.6239,0.6253,0.601,0.6097,0.6096,0.4749,0.4738,0.473,0.3709,0.3736,0.3786,0.3852,0.3894,0.3955,0.4151,0.4266,0.4635,0.5178,0.5707,0.6508,0.7019,0.7442,0.7809,0.7577,0.7173,0.7246,0.6538,0.6378,0.725,0.7056,0.7366,0.7366,0.7366,0.7366,0.7367,0.7367,0.3746,0.3758,0.3823,0.3885,0.3953,0.4051,0.4126,0.4391,0.4701,0.5194,0.566,0.6256,0.6898,0.7765,0.7948,0.7989,0.7798,0.7684,0.7524,0.7231,0.6875,0.783,0.8397,0.8398,0.8399,0.84,0.8401,0,0.3786,0.3813,0.3859,0.3933,0.4003,0.4086,0.4244,0.4381,0.4679,0.4996,0.5536,0.594,0.6744,0.7216,0.7807,0.8002,0.736,0.7885,0.7489,0.6803,0.6425,0.6223,0.699,0.7514,0.751,0.7507,0.7505,0.7504,0.3832,0.3854,0.3953,0.3987,0.4036,0.4137,0.4211,0.4399,0.4545,0.5036,0.5196,0.5751,0.6172,0.6931,0.7232,0.7697,0.7245,0.7776,0.7429,0.7058,0.6882,0.6525,0.6315,0.7464,0.7469,0.7473,0.7476,0,0.3847,0.392,0.3971,0.4083,0.4122,0.4167,0.4336,0.4432,0.4628,0.4892,0.4993,0.5357,0.5842,0.6108,0.6523,0.6619,0.6817,0.7141,0.6983,0.702,0.694,0.6743,0.6865,0.6671,0.7657,0.7666,0.7674,0,0.3902,0.3947,0.4056,0.4078,0.4146,0.4221,0.4327,0.4409,0.4609,0.4786,0.4929,0.5175,0.5355,0.5701,0.5851,0.633,0.6299,0.645,0.6515,0.6328,0.6328,0.609,0.5884,0.6269,0.6264,0.626,0.6256,0,0.3914,0.4012,0.4064,0.4089,0.4186,0.423,0.4288,0.4416,0.4511,0.4722,0.4859,0.5057,0.5234,0.5432,0.5685,0.5527,0.6127,0.5926,0.6298,0.6316,0.632,0.6327,0.6317,0.625,0.6248,0.6247,0.6245,0,0.3953,0.4021,0.4067,0.4171,0.4189,0.4215,0.4339,0.4386,0.4553,0.4623,0.4756,0.4837,0.5043,0.4963,0.5329,0.5157,0.533,0.5433,0.5456,0.5678,0.5606,0.5957,0.6268,0.5891,0.5701,0.5695,0.5689,0,0.3962,0.4038,0.4093,0.414,0.417,0.4232,0.4276,0.4346,0.4418,0.4531,0.4616,0.4702,0.4646,0.4701,0.481,0.4941,0.5129,0.4857,0.53,0.5317,0.5472,0.5755,0.5621,0.6155,0.5608,0.5617,0.5623,0,0.3974,0.4083,0.4099,0.4119,0.4187,0.4226,0.4267,0.4338,0.4405,0.4426,0.454,0.4546,0.4596,0.462,0.4623,0.4737,0.5005,0.4734,0.4741,0.4974,0.5425,0.562,0.5695,0.4947,0.4954,0.496,0.5559,0,0.4029,0.4072,0.4107,0.4146,0.4177,0.4224,0.4267,0.4292,0.4316,0.4347,0.4416,0.444,0.45,0.4463,0.4468,0.4598,0.4656,0.4579,0.4579,0.4679,0.493,0.4981,0.4381,0.4381,0.4381,0.438,0,0,0.401,0.407,0.4122,0.4155,0.4191,0.4233,0.4248,0.4272,0.4312,0.435,0.4329,0.4379,0.4362,0.4434,0.4449,0.4422,0.455,0.4402,0.4604,0.4628,0.4651,0.4895,0.4943,0.438,0.438,0.438,0.438,0,0.4042,0.4089,0.4108,0.4139,0.4204,0.4226,0.4245,0.4281,0.4296,0.4322,0.4322,0.4359,0.4326,0.4355,0.4363,0.4413,0.4456,0.4365,0.4449,0.4594,0.4619,0.4641,0.4885,0.4929,0.4379,0.4379,0.4379,0,0.4021,0.4087,0.4096,0.4169,0.4192,0.421,0.4234,0.4285,0.43,0.4297,0.4301,0.4297,0.4306,0.4311,0.4313,0.4308,0.4439,0.4293,0.4296,0.4348,0.45,0.4527,0.4551,0.4248,0.4247,0.4246,0,0,0.4032,0.4074,0.4128,0.4175,0.4193,0.4222,0.4245,0.4261,0.4301,0.4306,0.4288,0.4292,0.4296,0.4301,0.4286,0.4295,0.441,0.4275,0.4281,0.4286,0.4339,0.4491,0.4517,0.4244,0.4244,0.4244,0,0,0.404,0.4115,0.4104,0.4167,0.4198,0.425,0.4272,0.4281,0.4295,0.4301,0.4281,0.428,0.4285,0.4281,0.4257,0.4249,0.423,0.4234,0.4234,0.4241,0.4247,0.4311,0.4179,0,0,0,0,0,0.4066,0.4109,0.4098,0.4116,0.4185,0.4245,0.4249,0.4272,0.4275,0.4276,0.4301,0.4242,0.4277,0.4254,0.4245,0.4214,0.4211,0.4217,0.4222,0.4224,0.4232,0.4239,0,0,0,0,0,0,0.4074,0.4095,0.4099,0.4156,0.4174,0.4243,0.424,0.4243,0.4275,0.4275,0.4245,0.424,0.4216,0.4253,0.4246,0.4217,0.4181,0.4213,0.4218,0.4223,0.4226,0.4233,0.4239,0,0,0,0,0,0.4081,0.4098,0.4207,0.4154,0.4169,0.4215,0.4238,0.4241,0.4247,0.4242,0.4237,0.4272,0.4216,0.421,0.4249,0.4222,0.4185,0.4183,0.4217,0.4221,0.4224,0.423,0,0,0,0,0,0,0.4086,0.4063,0.421,0.4215,0.4161,0.421,0.4218,0.424,0.4209,0.4211,0.4265,0.4265,0.4216,0.4211,0.4206,0.4226,0.4189,0.4186,0.4185,0.422,0.4223,0.4225,0,0,0,0,0,0,0.4056,0.4066,0.4211,0.4219,0.4224,0.4205,0.4213,0.4188,0.4206,0.4228,0.4231,0.4265,0.4224,0.4212,0.4208,0.4167,0.4192,0.4189,0.4188,0.4187,0.4222,0.4224,0,0,0,0,0,0,0.4061,0.4069,0.4216,0.422,0.4224,0.4269,0.4179,0.4235,0.4254,0.4225,0.4256,0.4256,0.4225,0.4221,0.4209,0.417,0.4167,0.4192,0.419,0.4189,0.4188,0,0,0,0,0,0,0,0.4064,0.4005,0.4202,0.4221,0.4225,0.4268,0.4267,0.4266,0.4254,0.4255,0.4256,0.4256,0.4205,0.4202,0.42,0.4172,0,0,0.4192,0.4191,0,0,0,0,0,0,0,0,0.4002,0.4004,0.4203,0.4205,0.4207,0.4268,0.4267,0.4267,0.4255,0.4255,0.4255,0.4256,0.4204,0.4202,0.42,0,0,0,0,0,0,0,0,0,0,0,0,0,0,0,0.4203,0.4205,0,0.4268,0.4267,0.4267,0.4255,0.4255,0.4255,0.4256,0.4204,0.4202,0.42,0,0,0,0,0,0,0,0,0,0,0,0,0,0,0,0,0,0,0,0,0,0,0,0,0,0,0,0,0,0,0,0,0,0,0,0,0,0,0,0,0,0,0,0,0,0,0,0,0,0,0,0,0,0,0,0,0,0,0,0,0,0,0,0,0,0,0,0,0]}],[{"header":{"parameterUnit":"kt","parameterCategory":2,"dx":1,"dy":1,"la1":30.253999710083008,"la2":30.299108505249023,"lo1":-89.0895004272461,"lo2":-89.04439544677734,"nx":28,"ny":28,"refTime":"2022-10-12T21:00:00:Z","depth":"0","parameterNumber":3,"parameterNumberName":"V-component_of_CURRENTS"},"data":[-0.0278,-0.0085,0.0019,0.0506,0.0744,0.1196,0.1492,0.1996,0.2417,0.313,0.3459,0.3582,0.2771,0.0223,-0.1629,-0.2056,-0.2667,-0.2679,-0.3091,-0.2672,-0.2646,-0.262,-0.2676,-0.2893,-0.2895,-0.3725,-0.3734,-0.3741,-0.0353,-0.0245,-0.0053,0.0219,0.0507,0.0563,0.0979,0.1303,0.1859,0.2325,0.27,0.2678,0.184,0.0839,-0.0508,-0.1325,-0.1658,-0.1793,-0.2053,-0.2164,-0.1398,-0.1394,-0.1341,-0.1341,-0.1341,-0.134,-0.134,-0.1339,-0.0483,-0.0391,-0.0263,-0.0075,0.0112,0.0418,0.0661,0.0929,0.1314,0.181,0.1802,0.2122,0.1443,0.0655,0.0061,-0.0925,-0.0993,-0.1278,-0.1498,-0.1626,-0.1774,-0.0905,-0.0762,-0.0764,-0.0766,-0.0768,-0.0769,0,-0.0597,-0.0569,-0.0483,-0.0298,-0.0156,0.0017,0.0205,0.0399,0.0553,0.0807,0.1158,0.1252,0.0916,0.0591,-0.0043,-0.038,-0.1258,-0.0982,-0.1439,-0.1612,-0.1769,-0.1977,-0.1203,-0.0994,-0.0998,-0.1,-0.1002,-0.1003,-0.0761,-0.069,-0.0604,-0.0513,-0.0486,-0.036,-0.0239,-0.0184,-0.0004,0.023,0.0406,0.0392,0.0471,0.009,-0.0397,-0.0813,-0.1241,-0.1045,-0.1204,-0.1618,-0.1912,-0.2079,-0.2211,-0.1039,-0.1035,-0.1031,-0.1028,0,-0.0859,-0.0871,-0.076,-0.0724,-0.0697,-0.0593,-0.0471,-0.033,-0.0284,-0.0039,0.0001,-0.0058,-0.0138,-0.0476,-0.0741,-0.1054,-0.1412,-0.1327,-0.1172,-0.1214,-0.1698,-0.1916,-0.2038,-0.2187,-0.1401,-0.1399,-0.1397,0,-0.1034,-0.0969,-0.0994,-0.0935,-0.0793,-0.0843,-0.0667,-0.0653,-0.0566,-0.039,-0.0567,-0.0415,-0.0773,-0.0855,-0.1146,-0.1316,-0.1304,-0.1547,-0.161,-0.1504,-0.1495,-0.1894,-0.2123,-0.1619,-0.1619,-0.162,-0.162,0,-0.1205,-0.1185,-0.1088,-0.1085,-0.1076,-0.1009,-0.0991,-0.0973,-0.09,-0.086,-0.0775,-0.0869,-0.0858,-0.105,-0.1302,-0.1403,-0.1407,-0.1588,-0.1656,-0.1657,-0.1582,-0.158,-0.1749,-0.162,-0.162,-0.162,-0.162,0,-0.1382,-0.1355,-0.1271,-0.1223,-0.122,-0.1193,-0.1114,-0.1109,-0.1102,-0.1119,-0.1117,-0.1209,-0.121,-0.1386,-0.1498,-0.153,-0.1677,-0.177,-0.1774,-0.1775,-0.1942,-0.1755,-0.1563,-0.1976,-0.1903,-0.1904,-0.1906,0,-0.1499,-0.1437,-0.1491,-0.1427,-0.1406,-0.1491,-0.1461,-0.1491,-0.1529,-0.1489,-0.1563,-0.1538,-0.1724,-0.1701,-0.1735,-0.1843,-0.1839,-0.1883,-0.2026,-0.2029,-0.1947,-0.1785,-0.1642,-0.16,-0.1927,-0.1925,-0.1924,0,-0.1605,-0.1644,-0.1646,-0.1619,-0.1702,-0.1715,-0.1711,-0.1731,-0.1667,-0.179,-0.1695,-0.1785,-0.1839,-0.1873,-0.1961,-0.1957,-0.1886,-0.2096,-0.2102,-0.2046,-0.1884,-0.1827,-0.1808,-0.1969,-0.1966,-0.1963,-0.1941,0,-0.1724,-0.173,-0.1718,-0.175,-0.1794,-0.1799,-0.1904,-0.1931,-0.1992,-0.2049,-0.2031,-0.2126,-0.215,-0.2196,-0.2267,-0.2189,-0.2258,-0.2345,-0.2391,-0.2297,-0.2313,-0.2298,-0.2528,-0.2532,-0.2535,-0.2538,0,0,-0.1816,-0.1803,-0.1906,-0.1904,-0.1919,-0.206,-0.2045,-0.212,-0.2225,-0.2211,-0.2286,-0.2347,-0.243,-0.2371,-0.2365,-0.2447,-0.2476,-0.2448,-0.2374,-0.2356,-0.2339,-0.2344,-0.2327,-0.2544,-0.2545,-0.2546,-0.2547,0,-0.1852,-0.191,-0.1896,-0.1955,-0.2035,-0.2105,-0.2109,-0.2229,-0.227,-0.2311,-0.237,-0.2382,-0.2506,-0.2515,-0.2542,-0.2493,-0.2575,-0.2562,-0.2405,-0.2404,-0.2381,-0.2361,-0.2361,-0.2343,-0.2556,-0.2555,-0.2555,0,-0.1934,-0.1966,-0.1979,-0.2063,-0.2133,-0.2166,-0.2261,-0.2311,-0.232,-0.2435,-0.2457,-0.2522,-0.2608,-0.2625,-0.2643,-0.2681,-0.2653,-0.2706,-0.2692,-0.2641,-0.2643,-0.2618,-0.2595,-0.2874,-0.2874,-0.2874,0,0,-0.1959,-0.1965,-0.2077,-0.2081,-0.2121,-0.2234,-0.228,-0.2336,-0.2402,-0.2435,-0.2505,-0.2572,-0.261,-0.2636,-0.2701,-0.2728,-0.2752,-0.2733,-0.2719,-0.2705,-0.2648,-0.2646,-0.2623,-0.2874,-0.2874,-0.2874,0,0,-0.1974,-0.2058,-0.21,-0.2115,-0.2199,-0.232,-0.2343,-0.2404,-0.2471,-0.2461,-0.255,-0.2568,-0.2584,-0.2667,-0.2654,-0.2714,-0.2792,-0.2796,-0.2619,-0.2603,-0.2589,-0.2493,-0.2736,0,0,0,0,0,-0.2055,-0.2044,-0.2081,-0.2096,-0.222,-0.2303,-0.2329,-0.2414,-0.2432,-0.2458,-0.2503,-0.2561,-0.2679,-0.2668,-0.269,-0.2659,-0.2873,-0.2873,-0.2873,-0.2656,-0.2637,-0.2621,0,0,0,0,0,0,-0.2061,-0.2076,-0.2082,-0.2191,-0.222,-0.2304,-0.2352,-0.2378,-0.2431,-0.2439,-0.255,-0.2565,-0.2628,-0.2664,-0.2682,-0.265,-0.273,-0.2873,-0.2873,-0.2873,-0.2649,-0.2634,-0.2621,0,0,0,0,0,-0.2066,-0.2078,-0.2238,-0.2195,-0.222,-0.2335,-0.2351,-0.2373,-0.2425,-0.2522,-0.254,-0.248,-0.2627,-0.2645,-0.2675,-0.2639,-0.2718,-0.2724,-0.2873,-0.2873,-0.2873,-0.2642,0,0,0,0,0,0,-0.207,-0.2131,-0.2248,-0.2262,-0.2178,-0.2334,-0.2355,-0.2369,-0.2507,-0.2525,-0.2454,-0.2458,-0.2627,-0.2641,-0.2655,-0.2629,-0.2708,-0.2715,-0.2719,-0.2873,-0.2873,-0.2873,0,0,0,0,0,0,-0.2124,-0.2141,-0.2255,-0.2228,-0.224,-0.2332,-0.235,-0.2417,-0.2505,-0.2433,-0.244,-0.2453,-0.2578,-0.2639,-0.2649,-0.2755,-0.2701,-0.2707,-0.2712,-0.2714,-0.2873,-0.2873,0,0,0,0,0,0,-0.2134,-0.2149,-0.2226,-0.2235,-0.2246,-0.2415,-0.2394,-0.2504,-0.2517,-0.2425,-0.2515,-0.2514,-0.2572,-0.2587,-0.2646,-0.2747,-0.2753,-0.2701,-0.2705,-0.2708,-0.271,0,0,0,0,0,0,0,-0.2143,-0.2005,-0.2154,-0.2241,-0.2251,-0.2386,-0.2391,-0.2396,-0.2517,-0.2516,-0.2516,-0.2515,-0.2666,-0.2673,-0.2679,-0.2739,0,0,-0.2701,-0.2704,0,0,0,0,0,0,0,0,-0.2003,-0.2004,-0.2155,-0.2157,-0.2159,-0.2387,-0.2391,-0.2395,-0.2517,-0.2516,-0.2516,-0.2515,-0.2668,-0.2673,-0.2679,0,0,0,0,0,0,0,0,0,0,0,0,0,0,0,-0.2155,-0.2157,0,-0.2388,-0.2391,-0.2394,-0.2517,-0.2516,-0.2516,-0.2515,-0.2669,-0.2674,-0.2678,0,0,0,0,0,0,0,0,0,0,0,0,0,0,0,0,0,0,0,0,0,0,0,0,0,0,0,0,0,0,0,0,0,0,0,0,0,0,0,0,0,0,0,0,0,0,0,0,0,0,0,0,0,0,0,0,0,0,0,0,0,0,0,0,0,0,0,0,0]}]],[[{"header":{"parameterUnit":"kt","parameterCategory":2,"dx":1,"dy":1,"la1":30.253999710083008,"la2":30.299108505249023,"lo1":-89.0895004272461,"lo2":-89.04439544677734,"nx":28,"ny":28,"refTime":"2022-10-12T21:00:00:Z","depth":"2","parameterNumber":2,"parameterNumberName":"U-component_of_CURRENTS"},"data":[0.4435,0.4464,0.4466,0.4473,0.4458,0.4511,0.4667,0.4808,0.4894,0.4662,0.4444,0.4279,0.4509,0.3883,0.3855,0.3671,0.4097,0.355,0.4855,0.5097,0.5196,0.5491,0.4849,0,0,0,0,0,0.4447,0.4434,0.4455,0.453,0.4559,0.4589,0.4895,0.499,0.5371,0.5438,0.5512,0.4918,0.4683,0.478,0.4572,0.4483,0.4557,0.4335,0.444,0.4558,0.4663,0.4163,0.3506,0.3501,0.3496,0.3491,0,0,0.4429,0.4446,0.4525,0.4584,0.4631,0.4768,0.4886,0.521,0.5535,0.581,0.6136,0.6063,0.6034,0.5639,0.5647,0.5652,0.6027,0.576,0.5809,0.587,0.5428,0.5199,0.5104,0.511,0.5115,0.512,0.5124,0,0.4487,0.4532,0.4594,0.4653,0.4735,0.4838,0.5018,0.5214,0.5598,0.5877,0.6365,0.6515,0.6717,0.6547,0.6519,0.6588,0.6729,0.6577,0.7542,0.6139,0.5941,0.6004,0.6022,0.605,0.6062,0.607,0.6077,0.6081,0.4583,0.4594,0.4731,0.4764,0.4838,0.4928,0.5018,0.5266,0.5473,0.6005,0.6189,0.6587,0.6753,0.7161,0.7158,0.7328,0.7531,0.6875,0.6442,0.7059,0.7126,0.7101,0.7075,0.6209,0.6192,0.6179,0.6168,0,0.467,0.4753,0.4808,0.4973,0.5006,0.5043,0.5265,0.5374,0.5596,0.5877,0.597,0.6387,0.6747,0.6958,0.7438,0.7291,0.755,0.755,0.7034,0.7027,0.716,0.712,0.7392,0.7379,0.7368,0.7359,0.7352,0,0.4856,0.4858,0.5035,0.504,0.5089,0.5251,0.5341,0.5462,0.5699,0.5887,0.6036,0.6276,0.6466,0.6789,0.6981,0.7127,0.7461,0.7042,0.7131,0.6718,0.6644,0.7348,0.7315,0.7581,0.7576,0.7571,0.7567,0,0.4992,0.511,0.5126,0.5164,0.5358,0.5393,0.5476,0.5667,0.5761,0.5959,0.608,0.6234,0.6356,0.659,0.6831,0.6732,0.7301,0.7267,0.7064,0.7045,0.674,0.6671,0.7561,0.756,0.7559,0.7557,0.7555,0,0.5181,0.5225,0.5277,0.5393,0.5432,0.5498,0.5633,0.57,0.5882,0.5924,0.599,0.6084,0.6215,0.6108,0.6501,0.6335,0.6545,0.6713,0.6744,0.6302,0.6352,0.6399,0.645,0.7161,0.7155,0.7149,0.7144,0,0.5233,0.5283,0.5375,0.5456,0.5511,0.5612,0.5698,0.5775,0.5834,0.5938,0.5935,0.6044,0.5935,0.5967,0.6018,0.6297,0.6425,0.6151,0.674,0.6759,0.6292,0.6386,0.5909,0.639,0.7069,0.7077,0.7083,0,0.5247,0.5406,0.5396,0.5431,0.5543,0.5554,0.5697,0.573,0.579,0.5825,0.5853,0.5924,0.5926,0.5955,0.5993,0.6065,0.6323,0.6105,0.6116,0.6343,0.6835,0.6353,0.636,0.6366,0.6371,0.6375,0.7024,0,0.537,0.5372,0.5422,0.5467,0.5511,0.5536,0.5571,0.5672,0.5677,0.5657,0.5778,0.5841,0.591,0.5967,0.5925,0.6087,0.6181,0.6185,0.6108,0.6194,0.6478,0.6524,0.5984,0.5985,0.5985,0.5985,0,0,0.5311,0.529,0.5305,0.5344,0.5326,0.5359,0.5391,0.5445,0.55,0.5518,0.5521,0.5712,0.5803,0.5905,0.5919,0.5997,0.6146,0.5895,0.6144,0.6161,0.6177,0.6449,0.6492,0.5986,0.5986,0.5986,0.5986,0,0.5297,0.5275,0.5298,0.5298,0.5286,0.5283,0.5309,0.5326,0.538,0.5432,0.5545,0.5653,0.5769,0.5851,0.5877,0.5985,0.6111,0.6055,0.5941,0.614,0.6157,0.6172,0.6442,0.6481,0.5986,0.5986,0.5986,0,0.5252,0.5178,0.5162,0.5091,0.5115,0.5156,0.5098,0.5152,0.5178,0.5222,0.5418,0.5517,0.5593,0.5729,0.5813,0.5755,0.6031,0.5898,0.59,0.5848,0.6053,0.6072,0.6088,0.5868,0.5867,0.5866,0,0,0.5229,0.5206,0.5096,0.5063,0.509,0.5056,0.5059,0.5078,0.5133,0.521,0.5318,0.5441,0.5547,0.5601,0.5748,0.5809,0.5919,0.5879,0.5884,0.5888,0.584,0.6043,0.6061,0.5863,0.5863,0.5863,0,0,0.5225,0.5099,0.5064,0.502,0.499,0.4934,0.5011,0.4989,0.5134,0.5213,0.5272,0.5315,0.5523,0.5546,0.5489,0.5714,0.5698,0.5711,0.566,0.5668,0.5674,0.5586,0.5531,0,0,0,0,0,0.5088,0.5083,0.5048,0.502,0.493,0.4901,0.4904,0.4955,0.4996,0.5084,0.5196,0.5246,0.5551,0.5501,0.5527,0.5593,0.5818,0.5826,0.5834,0.5794,0.5802,0.5809,0,0,0,0,0,0,0.5075,0.5042,0.5047,0.4963,0.4939,0.4902,0.4925,0.4943,0.4996,0.5022,0.5211,0.5246,0.5311,0.5492,0.5515,0.5577,0.5524,0.5822,0.5828,0.5834,0.5797,0.5804,0.5809,0,0,0,0,0,0.5065,0.5038,0.4884,0.4968,0.4948,0.4966,0.4934,0.495,0.5067,0.5108,0.515,0.5112,0.5303,0.5338,0.5506,0.5566,0.5509,0.5517,0.5826,0.5831,0.5836,0.58,0,0,0,0,0,0,0.5056,0.5117,0.4883,0.4877,0.5016,0.4981,0.4983,0.4955,0.5163,0.5187,0.5004,0.502,0.5297,0.5325,0.535,0.5559,0.5497,0.5505,0.551,0.583,0.5834,0.5838,0,0,0,0,0,0,0.5127,0.5113,0.4882,0.4939,0.4943,0.4995,0.4995,0.5058,0.5173,0.5062,0.5071,0.501,0.5295,0.5316,0.5336,0.5429,0.5487,0.5495,0.5501,0.5504,0.5833,0.5837,0,0,0,0,0,0,0.5122,0.5111,0.4945,0.4947,0.4951,0.4925,0.5064,0.5021,0.5065,0.5061,0.508,0.5087,0.5284,0.5306,0.5325,0.5408,0.5424,0.5487,0.5493,0.5497,0.5499,0,0,0,0,0,0,0,0.5118,0.5185,0.4869,0.4953,0.4958,0.4815,0.4818,0.4821,0.5066,0.5072,0.5079,0.5084,0.5442,0.5451,0.546,0.5391,0,0,0.5487,0.5491,0,0,0,0,0,0,0,0,0.5191,0.5187,0.4868,0.4864,0.486,0.4816,0.4818,0.4821,0.5067,0.5072,0.5077,0.5082,0.5444,0.5451,0.5459,0,0,0,0,0,0,0,0,0,0,0,0,0,0,0,0.4868,0.4865,0,0.4816,0.4818,0.482,0.5068,0.5072,0.5076,0.508,0.5446,0.5452,0.5458,0,0,0,0,0,0,0,0,0,0,0,0,0,0,0,0,0,0,0,0,0,0,0,0,0,0,0,0,0,0,0,0,0,0,0,0,0,0,0,0,0,0,0,0,0,0,0,0,0,0,0,0,0,0,0,0,0,0,0,0,0,0,0,0,0,0,0,0,0]}],[{"header":{"parameterUnit":"kt","parameterCategory":2,"dx":1,"dy":1,"la1":30.253999710083008,"la2":30.299108505249023,"lo1":-89.0895004272461,"lo2":-89.04439544677734,"nx":28,"ny":28,"refTime":"2022-10-12T21:00:00:Z","depth":"2","parameterNumber":3,"parameterNumberName":"V-component_of_CURRENTS"},"data":[0.0822,0.0975,0.1033,0.1355,0.1488,0.1878,0.2193,0.2761,0.3003,0.3174,0.2987,0.2537,0.1705,0.0935,0.0169,-0.0343,-0.0348,-0.0424,-0.027,0.0015,0.0042,-0.0461,-0.0615,0,0,0,0,0,0.0778,0.0802,0.091,0.1127,0.1356,0.1375,0.1848,0.2205,0.2792,0.2892,0.3037,0.2325,0.1636,0.095,-0.0051,-0.07,-0.068,-0.0835,-0.0689,-0.0666,-0.0647,-0.0764,-0.0865,-0.0867,-0.0868,-0.087,0,0,0.0624,0.07,0.078,0.093,0.1046,0.1359,0.1603,0.1934,0.2339,0.2678,0.269,0.2629,0.1933,0.0863,0.034,-0.0279,-0.0282,-0.0579,-0.0564,-0.0549,-0.0665,-0.0687,-0.0739,-0.0739,-0.0739,-0.074,-0.074,0,0.057,0.0592,0.0677,0.0786,0.087,0.1071,0.1218,0.1443,0.1649,0.1892,0.2285,0.2314,0.1812,0.1305,0.0515,0.0229,-0.0149,-0.0251,-0.0076,-0.0376,-0.0379,-0.0351,-0.0346,-0.0362,-0.036,-0.0358,-0.0357,-0.0356,0.055,0.0539,0.0629,0.0682,0.0721,0.0771,0.087,0.0952,0.1153,0.1414,0.1588,0.1562,0.1585,0.1186,0.0622,0.0182,0.0143,-0.0172,-0.0441,-0.0355,-0.033,-0.0327,-0.0326,-0.0334,-0.0337,-0.0339,-0.0341,0,0.0582,0.0569,0.0622,0.067,0.0665,0.0686,0.0844,0.0931,0.0947,0.1149,0.1168,0.1182,0.1114,0.0785,0.0605,0.0222,0.0042,-0.0063,-0.0011,-0.0001,-0.0297,-0.0302,-0.032,-0.0326,-0.033,-0.0334,-0.0337,0,0.0649,0.0639,0.0684,0.0676,0.0713,0.0733,0.0778,0.0756,0.082,0.0974,0.0785,0.089,0.051,0.0464,0.0251,0.0007,0.0144,-0.0304,-0.0283,-0.0263,-0.0274,-0.0185,-0.0191,-0.0151,-0.0152,-0.0153,-0.0155,0,0.0712,0.077,0.0761,0.0765,0.0833,0.0813,0.0799,0.0777,0.0809,0.0715,0.0764,0.0538,0.0464,0.0285,0.0116,0.0026,0.0023,-0.0054,-0.0276,-0.0281,-0.0286,-0.0297,-0.0156,-0.0156,-0.0157,-0.0157,-0.0158,0,0.083,0.0836,0.0866,0.0878,0.09,0.0887,0.0825,0.0779,0.0703,0.0619,0.0459,0.0335,0.0217,0.0017,-0.0113,-0.0139,-0.0212,-0.0255,-0.0248,-0.0444,-0.0407,-0.0239,-0.0247,-0.0108,-0.0109,-0.0109,-0.011,0,0.0848,0.0856,0.0877,0.0873,0.0896,0.0858,0.0811,0.0747,0.0618,0.0532,0.0297,0.0171,-0.0062,-0.0125,-0.0222,-0.0243,-0.0269,-0.0316,-0.0244,-0.0241,-0.037,-0.0397,-0.0388,-0.0252,-0.0119,-0.0118,-0.0117,0,0.0818,0.0845,0.0815,0.0828,0.0812,0.0794,0.0737,0.0685,0.0634,0.0405,0.0316,0.0016,-0.0063,-0.0166,-0.0263,-0.0294,-0.0271,-0.0338,-0.0339,-0.0235,-0.0213,-0.0383,-0.0391,-0.03,-0.03,-0.0301,-0.0124,0,0.0802,0.0799,0.08,0.0795,0.08,0.0782,0.0718,0.0656,0.0493,0.0411,0.0207,-0.0005,-0.0158,-0.0189,-0.0316,-0.0334,-0.0319,-0.0339,-0.031,-0.0322,-0.0239,-0.0233,-0.0315,-0.0316,-0.0317,-0.0317,0,0,0.0758,0.0747,0.0715,0.0737,0.0721,0.0651,0.0689,0.0592,0.0448,0.0392,0.0252,-0.0043,-0.0139,-0.0256,-0.031,-0.0333,-0.0323,-0.0322,-0.0325,-0.0325,-0.0326,-0.0248,-0.0241,-0.0319,-0.0319,-0.0319,-0.0319,0,0.0719,0.0694,0.0713,0.0704,0.068,0.0641,0.0636,0.0577,0.0479,0.0313,0.0192,0.0066,-0.0141,-0.0206,-0.0289,-0.0342,-0.0313,-0.0351,-0.0341,-0.033,-0.0329,-0.0329,-0.0252,-0.0245,-0.0321,-0.0321,-0.0321,0,0.0706,0.0657,0.0652,0.0637,0.0615,0.0635,0.0551,0.0516,0.0451,0.0297,0.0155,0.0033,-0.0123,-0.0227,-0.028,-0.0262,-0.029,-0.0309,-0.0307,-0.0343,-0.0333,-0.0333,-0.0333,-0.0326,-0.0326,-0.0325,0,0,0.0689,0.0654,0.0652,0.0635,0.0655,0.0581,0.0554,0.0494,0.0369,0.0304,0.0189,0.0049,-0.0093,-0.0149,-0.0259,-0.0315,-0.0309,-0.0305,-0.0305,-0.0304,-0.0338,-0.0329,-0.033,-0.0324,-0.0324,-0.0324,0,0,0.0659,0.0615,0.061,0.0612,0.0593,0.051,0.0496,0.0431,0.0291,0.0241,0.0101,0.0059,-0.008,-0.0119,-0.0094,-0.0201,-0.0208,-0.0216,-0.0155,-0.0156,-0.0156,-0.0176,-0.0104,0,0,0,0,0,0.062,0.0633,0.0632,0.0627,0.0568,0.0542,0.0528,0.0431,0.0355,0.0351,0.0162,0.0157,-0.0146,-0.0127,-0.0148,-0.0123,-0.0303,-0.0307,-0.031,-0.0252,-0.0252,-0.0252,0,0,0,0,0,0,0.0618,0.0614,0.063,0.0558,0.0543,0.0539,0.0437,0.0411,0.0353,0.0334,0.0183,0.0154,0.0072,-0.0117,-0.0136,-0.011,-0.0097,-0.0305,-0.0308,-0.0311,-0.0252,-0.0252,-0.0252,0,0,0,0,0,0.0616,0.0612,0.0547,0.0555,0.0542,0.0431,0.0434,0.0411,0.0347,0.0231,0.0198,0.0271,0.0077,0.005,-0.0128,-0.01,-0.0085,-0.0091,-0.0307,-0.0309,-0.0311,-0.0252,0,0,0,0,0,0,0.0614,0.058,0.0542,0.0533,0.0523,0.0427,0.041,0.0411,0.0242,0.0214,0.0316,0.0305,0.0082,0.0059,0.0039,-0.0093,-0.0074,-0.0081,-0.0086,-0.0309,-0.031,-0.0312,0,0,0,0,0,0,0.0581,0.0574,0.0537,0.0503,0.0489,0.0424,0.0409,0.0351,0.0239,0.0334,0.0321,0.0313,0.0088,0.0067,0.005,-0.0035,-0.0066,-0.0073,-0.0078,-0.008,-0.031,-0.0312,0,0,0,0,0,0,0.0576,0.0569,0.0504,0.0494,0.0481,0.0377,0.0366,0.0293,0.0266,0.0341,0.0256,0.0251,0.0097,0.0079,0.0059,-0.0018,-0.003,-0.0066,-0.0071,-0.0074,-0.0076,0,0,0,0,0,0,0,0.0571,0.0643,0.0597,0.0486,0.0475,0.0457,0.0455,0.0452,0.0265,0.0261,0.0257,0.0253,-0.0028,-0.0035,-0.0043,-0.0005,0,0,-0.0066,-0.0069,0,0,0,0,0,0,0,0,0.0642,0.0643,0.0596,0.0595,0.0594,0.0457,0.0455,0.0452,0.0264,0.0261,0.0258,0.0254,-0.003,-0.0036,-0.0042,0,0,0,0,0,0,0,0,0,0,0,0,0,0,0,0.0596,0.0595,0,0.0457,0.0455,0.0453,0.0264,0.0261,0.0258,0.0256,-0.0032,-0.0036,-0.0041,0,0,0,0,0,0,0,0,0,0,0,0,0,0,0,0,0,0,0,0,0,0,0,0,0,0,0,0,0,0,0,0,0,0,0,0,0,0,0,0,0,0,0,0,0,0,0,0,0,0,0,0,0,0,0,0,0,0,0,0,0,0,0,0,0,0,0,0,0]}]],[[{"header":{"parameterUnit":"kt","parameterCategory":2,"dx":1,"dy":1,"la1":30.253999710083008,"la2":30.299108505249023,"lo1":-89.0895004272461,"lo2":-89.04439544677734,"nx":28,"ny":28,"refTime":"2022-10-12T21:00:00:Z","depth":"4","parameterNumber":2,"parameterNumberName":"U-component_of_CURRENTS"},"data":[0.1343,0.1444,0.1532,0.1604,0.1668,0.1814,0.192,0.2119,0.215,0.2464,0.2531,0.2798,0.2925,0.3109,0.3077,0.311,0.3047,0.343,0.3422,0.3449,0.347,0.3488,0.3414,0,0,0,0,0,0.1407,0.1471,0.1581,0.1746,0.1891,0.199,0.2199,0.2329,0.2627,0.2673,0.2853,0.2976,0.3083,0.3208,0.3126,0.3373,0.3422,0.3259,0.3264,0.3462,0.3485,0.3405,0,0,0,0,0,0,0.1508,0.1557,0.1735,0.1886,0.2043,0.2128,0.2253,0.2415,0.2588,0.2992,0.3031,0.3299,0.3557,0.3536,0.3543,0.3524,0.3445,0.3303,0.3333,0.3356,0.3265,0.3123,0.2977,0,0,0,0,0,0.1605,0.1732,0.1843,0.2016,0.2165,0.2307,0.25,0.2573,0.2898,0.3175,0.3339,0.3437,0.3587,0.3667,0.3698,0.365,0.3812,0.3725,0.3734,0.3646,0.3566,0.3525,0.3527,0.3572,0.3575,0.3577,0.3578,0,0.1749,0.18,0.2055,0.2135,0.2247,0.2424,0.2551,0.2841,0.2971,0.3349,0.3422,0.3688,0.3838,0.3808,0.3935,0.3898,0.3845,0.3786,0.3693,0.3602,0.3557,0.3552,0.3547,0.3597,0.3595,0.3594,0.3592,0,0.1816,0.196,0.2075,0.2298,0.2377,0.2475,0.2751,0.2872,0.3137,0.3353,0.3457,0.3752,0.3892,0.3998,0.4105,0.3981,0.3955,0.3882,0.4041,0.4003,0.3588,0.3575,0.3627,0.362,0.3614,0.361,0.3606,0,0.1949,0.2023,0.2238,0.2283,0.2418,0.2576,0.2751,0.2914,0.316,0.3317,0.3531,0.3673,0.3873,0.3974,0.3966,0.3924,0.407,0.3796,0.3754,0.3912,0.3899,0.3876,0.3857,0.4045,0.4044,0.4044,0.4044,0,0.2006,0.2171,0.2267,0.2321,0.2524,0.2619,0.2736,0.2949,0.3076,0.3338,0.3475,0.3656,0.3794,0.3851,0.3911,0.3888,0.4036,0.3975,0.376,0.3742,0.3868,0.3849,0.4044,0.4044,0.4044,0.4044,0.4044,0,0.2111,0.2188,0.2305,0.2469,0.2509,0.2608,0.28,0.2914,0.3127,0.3249,0.3415,0.3504,0.3673,0.3649,0.3798,0.378,0.3781,0.3796,0.3796,0.3574,0.3462,0.3551,0.3723,0.3721,0.3719,0.3717,0.3715,0,0.2116,0.2227,0.2318,0.2436,0.2492,0.2616,0.2729,0.2865,0.2991,0.3139,0.3243,0.3382,0.3387,0.348,0.3562,0.3619,0.3671,0.3612,0.3641,0.364,0.3432,0.3548,0.3674,0.3688,0.3691,0.3694,0.3696,0,0.2106,0.227,0.2285,0.2348,0.2486,0.2533,0.2666,0.2788,0.2893,0.3021,0.3152,0.3269,0.3332,0.337,0.3409,0.349,0.3616,0.3489,0.3489,0.3475,0.3745,0.3536,0.3532,0.3653,0.3657,0.366,0.3677,0,0.2163,0.2242,0.2269,0.2379,0.2445,0.2507,0.2604,0.2698,0.2789,0.2861,0.3011,0.3068,0.3171,0.3202,0.3216,0.3363,0.3336,0.3315,0.3264,0.3385,0.3369,0.3385,0.3165,0.3162,0.316,0.3159,0,0,0.2124,0.2194,0.2257,0.2314,0.2364,0.2445,0.2507,0.2578,0.269,0.2749,0.2765,0.2934,0.2957,0.3073,0.3132,0.3129,0.3155,0.3155,0.3319,0.3337,0.3353,0.3345,0.3363,0.3155,0.3154,0.3154,0.3153,0,0.2117,0.2183,0.2237,0.2289,0.2378,0.2418,0.2455,0.2538,0.2597,0.2709,0.2731,0.2817,0.2906,0.2942,0.297,0.3095,0.3078,0.3125,0.3234,0.3299,0.332,0.3338,0.3334,0.3351,0.3148,0.3149,0.3149,0,0.2102,0.2151,0.219,0.227,0.2315,0.2374,0.2386,0.2462,0.2531,0.2536,0.2655,0.2693,0.2726,0.282,0.2867,0.2841,0.3008,0.2955,0.2966,0.2979,0.3042,0.3066,0.3087,0.2811,0.281,0.2809,0,0,0.2098,0.2158,0.2218,0.2268,0.2298,0.236,0.2399,0.2444,0.25,0.2538,0.2585,0.2642,0.2692,0.2739,0.2769,0.286,0.2853,0.2916,0.2932,0.2945,0.2964,0.3031,0.3054,0.2805,0.2805,0.2805,0,0,0.2081,0.2159,0.2197,0.2253,0.2308,0.2347,0.2388,0.2432,0.2507,0.2536,0.255,0.2562,0.2661,0.2664,0.2617,0.2768,0.27,0.271,0.2777,0.2797,0.2812,0.2825,0.2572,0,0,0,0,0,0.2113,0.2147,0.2181,0.2198,0.2286,0.2333,0.2346,0.2397,0.2431,0.2468,0.2526,0.2507,0.2644,0.2602,0.2612,0.2685,0.2759,0.2768,0.2775,0.288,0.2901,0.2919,0,0,0,0,0,0,0.2119,0.2137,0.218,0.2217,0.2238,0.2331,0.2337,0.2351,0.2428,0.2436,0.2499,0.2506,0.2502,0.2596,0.2605,0.2676,0.2569,0.2763,0.2769,0.2776,0.2887,0.2905,0.2919,0,0,0,0,0,0.2125,0.2139,0.2271,0.2218,0.2236,0.2307,0.2337,0.2349,0.2424,0.2438,0.245,0.2468,0.25,0.2512,0.2601,0.2673,0.2562,0.2566,0.2767,0.2773,0.2777,0.2896,0,0,0,0,0,0,0.2129,0.2148,0.2275,0.2283,0.2221,0.2305,0.232,0.2347,0.2422,0.2435,0.24,0.2403,0.2499,0.2508,0.2517,0.2674,0.2557,0.2561,0.2563,0.2771,0.2775,0.2779,0,0,0,0,0,0,0.2141,0.2154,0.2279,0.228,0.2288,0.2303,0.2316,0.2348,0.2422,0.238,0.2386,0.24,0.2486,0.2506,0.2513,0.2561,0.2554,0.2557,0.2559,0.2561,0.2775,0.2778,0,0,0,0,0,0,0.2147,0.2158,0.2278,0.2284,0.2291,0.2376,0.2331,0.2419,0.2427,0.2376,0.2429,0.243,0.2483,0.2491,0.251,0.2554,0.2559,0.2554,0.2556,0.2558,0.2559,0,0,0,0,0,0,0,0.2152,0.2065,0.2233,0.2288,0.2294,0.235,0.2352,0.2354,0.2427,0.2428,0.2429,0.2429,0.2535,0.2539,0.2542,0.2549,0,0,0.2553,0.2555,0,0,0,0,0,0,0,0,0.2062,0.2064,0.2233,0.2235,0.2237,0.2351,0.2352,0.2354,0.2427,0.2428,0.2429,0.2429,0.2536,0.2539,0.2542,0,0,0,0,0,0,0,0,0,0,0,0,0,0,0,0.2234,0.2235,0,0.2351,0.2352,0.2353,0.2427,0.2428,0.2428,0.2429,0.2537,0.2539,0.2542,0,0,0,0,0,0,0,0,0,0,0,0,0,0,0,0,0,0,0,0,0,0,0,0,0,0,0,0,0,0,0,0,0,0,0,0,0,0,0,0,0,0,0,0,0,0,0,0,0,0,0,0,0,0,0,0,0,0,0,0,0,0,0,0,0,0,0,0,0]}],[{"header":{"parameterUnit":"kt","parameterCategory":2,"dx":1,"dy":1,"la1":30.253999710083008,"la2":30.299108505249023,"lo1":-89.0895004272461,"lo2":-89.04439544677734,"nx":28,"ny":28,"refTime":"2022-10-12T21:00:00:Z","depth":"4","parameterNumber":3,"parameterNumberName":"V-component_of_CURRENTS"},"data":[0.087,0.0976,0.1031,0.1163,0.1239,0.1359,0.1412,0.1436,0.1401,0.1405,0.1148,0.1089,0.0608,0.0855,0.0152,0.0057,-0.0024,-0.0555,-0.0561,-0.0659,-0.0651,-0.0644,-0.0527,0,0,0,0,0,0.0864,0.0932,0.1033,0.1153,0.1265,0.1327,0.1421,0.1457,0.1497,0.1442,0.142,0.1136,0.0675,0.0465,0.0147,0.0031,-0.035,-0.0349,-0.0423,-0.0654,-0.0646,-0.0534,0,0,0,0,0,0,0.0848,0.0906,0.1013,0.112,0.1234,0.1315,0.1362,0.1405,0.1443,0.1416,0.1374,0.1064,0.0897,0.0426,0.0109,-0.02,-0.0266,-0.032,-0.0329,-0.0325,-0.019,-0.0079,-0.0198,0,0,0,0,0,0.083,0.0885,0.0959,0.1085,0.1175,0.1271,0.1357,0.1394,0.1419,0.1427,0.1322,0.1079,0.0768,0.0386,0.0039,-0.0262,-0.0429,-0.0544,-0.0541,-0.0494,-0.0441,-0.0479,-0.0461,-0.0613,-0.0612,-0.0612,-0.0611,0,0.0816,0.0862,0.0986,0.1044,0.1087,0.1179,0.1233,0.1267,0.1303,0.1264,0.1258,0.1039,0.0883,0.0392,0.0085,-0.0347,-0.04,-0.0521,-0.047,-0.0425,-0.0469,-0.0452,-0.0437,-0.0604,-0.0605,-0.0605,-0.0606,0,0.081,0.0856,0.0933,0.101,0.1041,0.1095,0.1172,0.1204,0.1184,0.1191,0.1178,0.1009,0.0749,0.0468,0.0127,-0.0032,-0.0301,-0.0401,-0.0234,-0.0284,-0.0432,-0.0419,-0.0593,-0.0596,-0.0598,-0.0599,-0.0601,0,0.0801,0.0847,0.0922,0.0955,0.1027,0.1021,0.1074,0.1055,0.104,0.1051,0.0925,0.0883,0.0625,0.0435,0.0224,-0.0051,-0.0058,-0.0233,-0.0296,-0.016,-0.0149,-0.0194,-0.0186,-0.0252,-0.0251,-0.0249,-0.0248,0,0.0767,0.0826,0.0886,0.0902,0.0929,0.0952,0.0964,0.0927,0.0942,0.0869,0.0861,0.0705,0.0636,0.0443,0.0218,0.0231,-0.0053,-0.0077,-0.0239,-0.0243,-0.0182,-0.0176,-0.0246,-0.0246,-0.0246,-0.0245,-0.0245,0,0.0732,0.0777,0.0831,0.087,0.0878,0.0893,0.0903,0.0896,0.083,0.0805,0.0732,0.0655,0.0536,0.0491,0.0252,0.0312,0.0168,0.0053,0.0042,0.0002,-0.0057,-0.0067,-0.0109,-0.0107,-0.0105,-0.0103,-0.0102,0,0.0704,0.0762,0.0758,0.0798,0.0823,0.0801,0.0799,0.0774,0.0744,0.0708,0.0611,0.0562,0.0502,0.0467,0.0379,0.0233,0.0147,0.0236,-0.0001,-0.0008,-0.0024,-0.007,0.0123,-0.0075,-0.0078,-0.0081,-0.0082,0,0.0676,0.0706,0.0714,0.0734,0.0729,0.0736,0.0729,0.0709,0.0709,0.0648,0.0621,0.0522,0.0473,0.0429,0.0349,0.0274,0.018,0.0226,0.022,0.0154,-0.0012,-0.0036,-0.0055,0.0132,0.013,0.0129,-0.0064,0,0.0653,0.0673,0.069,0.0695,0.0691,0.0706,0.0675,0.0667,0.0645,0.0607,0.055,0.0465,0.0395,0.035,0.0313,0.024,0.021,0.018,0.0161,0.0156,0.0071,0.0056,0.0214,0.0213,0.0212,0.0212,0,0,0.062,0.0643,0.0632,0.0647,0.065,0.0612,0.0622,0.0602,0.0556,0.0541,0.053,0.0409,0.0348,0.0276,0.0274,0.0237,0.0183,0.0245,0.0166,0.0161,0.0157,0.0076,0.0063,0.0211,0.021,0.021,0.021,0,0.0607,0.0619,0.0633,0.0627,0.0613,0.0591,0.0594,0.0558,0.0547,0.052,0.0462,0.0406,0.034,0.028,0.0243,0.0232,0.0162,0.0209,0.0251,0.0163,0.0159,0.0155,0.0075,0.0064,0.0208,0.0208,0.0208,0,0.0578,0.0579,0.0582,0.0576,0.0558,0.0554,0.052,0.0519,0.0512,0.0447,0.0429,0.0372,0.0306,0.0263,0.0242,0.0234,0.0145,0.0184,0.0186,0.021,0.0117,0.0114,0.011,0.0152,0.0152,0.0152,0,0,0.0568,0.0584,0.0553,0.0567,0.0563,0.0523,0.0515,0.0498,0.0467,0.0458,0.0412,0.0363,0.0312,0.0287,0.0242,0.0204,0.0156,0.0179,0.0182,0.0184,0.0209,0.0118,0.0115,0.0152,0.0152,0.0152,0,0,0.0555,0.0539,0.0522,0.0544,0.0518,0.0479,0.0487,0.0463,0.0438,0.0441,0.038,0.0367,0.0329,0.0294,0.0305,0.0227,0.0213,0.021,0.0253,0.0256,0.0258,0.03,0.0258,0,0,0,0,0,0.0512,0.0541,0.0525,0.0523,0.05,0.0482,0.0476,0.0454,0.0445,0.0451,0.0414,0.0379,0.0288,0.0297,0.0282,0.0262,0.0155,0.0155,0.0154,0.02,0.0204,0.0206,0,0,0,0,0,0,0.0511,0.051,0.0524,0.0488,0.0482,0.0481,0.0457,0.0451,0.0444,0.0443,0.0387,0.0376,0.0336,0.03,0.0288,0.027,0.0262,0.0155,0.0155,0.0154,0.0202,0.0204,0.0206,0,0,0,0,0,0.051,0.0509,0.0486,0.0486,0.0481,0.0452,0.0458,0.0452,0.0449,0.0387,0.0378,0.0436,0.0337,0.0324,0.0293,0.0276,0.027,0.0265,0.0155,0.0154,0.0154,0.0203,0,0,0,0,0,0,0.0509,0.0497,0.0484,0.048,0.0491,0.0451,0.0448,0.0454,0.0393,0.0385,0.0432,0.0431,0.0337,0.0327,0.0317,0.0281,0.0277,0.0272,0.0269,0.0155,0.0154,0.0154,0,0,0,0,0,0,0.0497,0.0494,0.0482,0.0489,0.0486,0.0451,0.0448,0.0401,0.0391,0.044,0.0439,0.0432,0.0343,0.0329,0.0321,0.0249,0.0282,0.0277,0.0274,0.0273,0.0154,0.0154,0,0,0,0,0,0,0.0494,0.0492,0.049,0.0488,0.0485,0.044,0.0407,0.038,0.0418,0.0443,0.0419,0.0419,0.0345,0.0337,0.0324,0.0256,0.0251,0.0282,0.0279,0.0277,0.0275,0,0,0,0,0,0,0,0.0493,0.0522,0.0507,0.0486,0.0484,0.0445,0.0444,0.0443,0.0418,0.0418,0.0419,0.0419,0.0306,0.0302,0.0297,0.0261,0,0,0.0282,0.028,0,0,0,0,0,0,0,0,0.0522,0.0522,0.0507,0.0506,0.0506,0.0445,0.0444,0.0443,0.0418,0.0418,0.0419,0.0419,0.0305,0.0301,0.0297,0,0,0,0,0,0,0,0,0,0,0,0,0,0,0,0.0507,0.0506,0,0.0445,0.0444,0.0443,0.0418,0.0418,0.0419,0.0419,0.0304,0.0301,0.0298,0,0,0,0,0,0,0,0,0,0,0,0,0,0,0,0,0,0,0,0,0,0,0,0,0,0,0,0,0,0,0,0,0,0,0,0,0,0,0,0,0,0,0,0,0,0,0,0,0,0,0,0,0,0,0,0,0,0,0,0,0,0,0,0,0,0,0,0,0]}]]]